Location: Madrid
(40.4000°N, 3.6830°W)
Time: 11:57:15
(UTC+01:00)

ISS - Pass Details

Date: 26 October 2020
Orbit: 417 x 420 km, 51.6° (Epoch: 29 October)

Event Time Altitude Azimuth Distance (km) Brightness Sun altitude
Exits shadow 05:07:10 17° 77° (ENE) 1,142 -0.8 -29.3°
Drops below altitude 10° 05:08:08 10° 68° (ENE) 1,494 -0.1 -29.1°
Sets 05:10:19 0° 60° (ENE) 2,361 1.1 -28.7°
